Zurück zum Katalog

STARLINK-3743

AktivKommunikationVLEO
NORAD 52118·PAYLOAD·🇺🇸 United States

Gestartet Mar 19, 2022 von Cape Canaveral Space Force Station

Loading…

Nächste Überflüge (nächste 24 Stunden)

TLE

AktuellSource: CelesTrak SupGP

Epoche: Sep 15, 2026, 01:44 UTC

1 52118C 22029AG  26258.07270833  .00019554  00000+0  57770-3 0  2585
2 52118  53.1588 294.7523 0001254  91.2648 151.6385 15.34382455    13

Verfolge STARLINK-3743 in Echtzeit mit AllMySat

Download on the App Store